[[{"header":{"parameterUnit":"m.s-1","parameterCategory":1,"la1":30.2991,"la2":30.254,"lo1":-89.0895,"lo2":-89.0444,"dy":0.0017,"dx":0.0017,"nx":28,"ny":28,"refTime":"2025-07-18T09:00:00:Z","depth":0,"parameterNumber":2,"parameterNumberName":"U-component_of_WINDS"},"data":[0,0,0,0,0,0,0,0,0,0,0,0,0,0,0,0,0,0,0,0,0,0,0,0,0,0,0,0,0,0,0,0,0,0,0,0,0,0,0,0,0,0,0,0,0,0,0,0,0,0,0,0,0,0,0,0,0,0,1.9586,1.9587,0,1.9656,1.9657,1.9657,1.9652,1.9651,1.965,1.9649,1.9721,1.9724,1.9727,0,0,0,0,0,0,0,0,0,0,0,0,0,1.945,1.9452,1.9586,1.9587,1.9588,1.9656,1.9657,1.9658,1.9653,1.9651,1.965,1.9649,1.972,1.9724,1.9727,0,0,0,0,0,0,0,0,0,0,0,0,0,1.9513,1.9453,1.9586,1.9594,1.9595,1.9655,1.9657,1.9658,1.9653,1.9651,1.965,1.9648,1.9719,1.9723,1.9727,1.9785,0,0,1.9741,1.9743,0,0,0,0,0,0,0,0,1.9509,1.9518,1.9592,1.9593,1.9595,1.9644,1.9635,1.9701,1.9653,1.9631,1.9649,1.9647,1.9697,1.9703,1.9719,1.9788,1.9792,1.9741,1.9744,1.9746,1.9747,0,0,0,0,0,0,0,1.9505,1.9515,1.9614,1.9593,1.9595,1.9594,1.9601,1.9647,1.9672,1.9633,1.9633,1.9641,1.9697,1.9715,1.9721,1.9793,1.9741,1.9745,1.9747,1.9749,1.9911,1.9913,0,0,0,0,0,0,1.9499,1.9511,1.9612,1.9616,1.9547,1.9597,1.9606,1.963,1.9671,1.9676,1.9642,1.964,1.9708,1.9716,1.9723,1.9793,1.9745,1.975,1.9752,1.991,1.9912,1.9914,0,0,0,0,0,0,1.9496,1.9508,1.9609,1.9564,1.9576,1.9601,1.9629,1.9632,1.965,1.9678,1.9683,1.9656,1.9707,1.9717,1.9769,1.9795,1.9751,1.9755,1.9908,1.991,1.9913,1.9932,0,0,0,0,0,0,1.9492,1.9507,1.9529,1.9564,1.9579,1.9654,1.963,1.9634,1.9657,1.9655,1.9692,1.9697,1.9707,1.9763,1.9774,1.98,1.9759,1.9905,1.9909,1.9912,1.9929,1.9935,1.994,0,0,0,0,0,1.9487,1.9532,1.953,1.9542,1.9607,1.9655,1.9664,1.9674,1.9659,1.9681,1.97,1.9696,1.9791,1.9768,1.978,1.9809,1.9904,1.9908,1.9912,1.9927,1.9934,1.994,0,0,0,0,0,0,1.95,1.9537,1.9535,1.9593,1.9621,1.9654,1.9683,1.9682,1.9715,1.9712,1.9724,1.9733,1.9785,1.9802,1.9777,1.9866,1.9845,1.9852,1.9853,1.986,1.9865,1.9859,1.9762,0,0,0,0,0,1.9509,1.9545,1.9576,1.9624,1.9638,1.9658,1.9679,1.9685,1.9715,1.9727,1.9749,1.9778,1.9814,1.9838,1.9873,1.9932,1.9939,1.9957,1.9962,1.9967,1.9972,2.0003,2.0011,1.9926,1.9926,1.9926,0,0,1.9529,1.9554,1.9576,1.9627,1.9649,1.9686,1.9668,1.9708,1.9735,1.9733,1.9783,1.98,1.9834,1.9889,1.9915,1.9905,1.9997,1.9972,1.9975,1.9978,2.0008,2.0016,2.0023,1.9929,1.9929,1.9928,0,0,1.9584,1.9607,1.9648,1.9671,1.9705,1.9718,1.9728,1.9762,1.9773,1.9824,1.9822,1.9855,1.9918,1.9941,1.9961,2.0024,2.0021,2.0035,2.0063,2.0093,2.01,2.0106,2.0127,2.0135,2.0041,2.0041,2.0041,0,1.9604,1.966,1.967,1.971,1.9732,1.9731,1.9774,1.9795,1.9839,1.9854,1.9843,1.9921,1.9943,2.0003,2.0019,2.0035,2.0047,2.0031,2.0098,2.0104,2.011,2.013,2.0139,2.0042,2.0042,2.0042,2.0042,0,1.9683,1.9721,1.9751,1.9793,1.9818,1.9859,1.9876,1.99,1.9904,1.9918,1.9969,1.9996,2.0035,2.005,2.0055,2.0111,2.0104,2.0095,2.0075,2.0119,2.0139,2.0147,2.0044,2.0044,2.0043,2.0043,0,0,1.9747,1.9794,1.9804,1.9823,1.986,1.989,1.9931,1.997,1.999,2.002,2.0054,2.0107,2.0099,2.0121,2.0128,2.0155,2.0202,2.0143,2.0144,2.0152,2.0264,2.027,2.0279,2.02,2.0202,2.0203,2.0261,0,1.9805,1.9877,1.9887,1.9951,1.9986,1.9985,2.0021,2.0047,2.0061,2.0093,2.0109,2.0146,2.0133,2.0146,2.0173,2.019,2.0224,2.0186,2.0231,2.0233,2.0222,2.0289,2.0296,2.035,2.0269,2.027,2.0271,0,1.9882,1.9914,1.998,2.0012,2.0027,2.0059,2.0095,2.0125,2.0155,2.0164,2.0189,2.0192,2.0233,2.0211,2.0269,2.0243,2.0262,2.0273,2.0275,2.028,2.0254,2.0294,2.0367,2.0375,2.0284,2.0283,2.0282,0,1.9921,1.9981,2.0028,2.0044,2.0082,2.0104,2.0121,2.015,2.0172,2.0204,2.0218,2.0254,2.0274,2.0301,2.0314,2.0297,2.037,2.0349,2.0378,2.0377,2.0393,2.0391,2.0468,2.0406,2.0406,2.0406,2.0406,0,1.9984,2.0025,2.0046,2.0075,2.012,2.0132,2.0176,2.0192,2.0218,2.0249,2.0252,2.0282,2.0297,2.0329,2.0339,2.0385,2.0394,2.0401,2.0403,2.0401,2.0399,2.0413,2.0409,2.0408,2.0408,2.0407,2.0407,0,2.0035,2.0051,2.0102,2.0134,2.0143,2.0175,2.0202,2.023,2.0244,2.0285,2.0295,2.0316,2.0354,2.037,2.0416,2.0423,2.0475,2.0475,2.0465,2.0465,2.0492,2.0489,2.058,2.0592,2.0523,2.0523,2.0524,0,2.0074,2.0105,2.014,2.0161,2.0179,2.0214,2.0236,2.0249,2.0272,2.0308,2.0332,2.0369,2.04,2.046,2.048,2.0516,2.0516,2.0545,2.0521,2.0517,2.0515,2.0513,2.0515,2.0549,2.055,2.0551,2.0551,0,2.014,2.0147,2.0179,2.0214,2.0241,2.0269,2.0297,2.0314,2.0331,2.0357,2.0396,2.0419,2.0467,2.0504,2.054,2.0557,2.0557,2.0558,2.0567,2.0564,2.0556,2.056,2.0476,2.0556,2.0556,2.0555,2.0555,2.0555,2.0186,2.0213,2.0242,2.0278,2.03,2.0325,2.0353,2.037,2.0402,2.0441,2.0447,2.0488,2.0516,2.0565,2.0584,2.0616,2.0608,2.062,2.0623,2.0626,2.0627,2.0552,2.0622,2.0622,2.0622,2.0622,2.0622,0,2.0251,2.027,2.0303,2.0341,2.0369,2.0366,2.0396,2.042,2.0456,2.0483,2.0513,2.0556,2.0592,2.0615,2.0651,2.0672,2.0672,2.0681,2.0679,2.0683,2.0632,2.0621,2.068,2.068,2.068,2.068,2.068,2.068,2.0289,2.0335,2.0344,2.04,2.0419,2.0458,2.0476,2.0499,2.052,2.0569,2.0599,2.0613,2.0638,2.0676,2.0708,2.0714,2.0727,2.0735,2.074,2.0693,2.0686,2.0681,2.067,2.0738,2.0738,2.0788,2.0788,2.0789]},{"header":{"parameterUnit":"m.s-1","parameterCategory":1,"la1":30.2991,"la2":30.254,"lo1":-89.0895,"lo2":-89.0444,"dy":0.0017,"dx":0.0017,"nx":28,"ny":28,"refTime":"2025-07-18T09:00:00:Z","depth":0,"parameterNumber":3,"parameterNumberName":"V-component_of_WINDS"},"data":[0,0,0,0,0,0,0,0,0,0,0,0,0,0,0,0,0,0,0,0,0,0,0,0,0,0,0,0,0,0,0,0,0,0,0,0,0,0,0,0,0,0,0,0,0,0,0,0,0,0,0,0,0,0,0,0,0,0,5.2548,5.2549,0,5.2661,5.2662,5.2663,5.2677,5.2676,5.2675,5.2674,5.2783,5.2787,5.2791,0,0,0,0,0,0,0,0,0,0,0,0,0,5.2338,5.2342,5.2548,5.2549,5.2551,5.2661,5.2662,5.2664,5.2677,5.2676,5.2674,5.2673,5.2782,5.2786,5.2791,0,0,0,0,0,0,0,0,0,0,0,0,0,5.2438,5.2343,5.2548,5.2571,5.2574,5.266,5.2662,5.2664,5.2677,5.2676,5.2674,5.2672,5.278,5.2786,5.2792,5.2861,0,0,5.281,5.2812,0,0,0,0,0,0,0,0,5.2432,5.2446,5.2566,5.2569,5.2573,5.2653,5.2628,5.273,5.2678,5.2638,5.2673,5.2672,5.2741,5.275,5.2774,5.2866,5.2871,5.281,5.2814,5.2816,5.2818,0,0,0,0,0,0,0,5.2425,5.2441,5.2592,5.2568,5.2572,5.2574,5.2586,5.2648,5.2697,5.2641,5.2642,5.2656,5.2742,5.2769,5.2777,5.2872,5.281,5.2815,5.2819,5.2821,5.3026,5.3028,0,0,0,0,0,0,5.2415,5.2435,5.2589,5.2596,5.2497,5.2579,5.2593,5.2629,5.2696,5.2705,5.2657,5.2656,5.2759,5.277,5.2781,5.2866,5.2816,5.2822,5.2825,5.3024,5.3026,5.3028,0,0,0,0,0,0,5.241,5.2429,5.2584,5.2516,5.2536,5.2584,5.2625,5.2632,5.2658,5.2709,5.2717,5.2675,5.2758,5.2772,5.2841,5.287,5.2824,5.283,5.3022,5.3025,5.3027,5.3037,0,0,0,0,0,0,5.2404,5.2427,5.2455,5.2516,5.2539,5.2644,5.2627,5.2635,5.2669,5.2669,5.2728,5.2736,5.2758,5.2832,5.2847,5.2877,5.2834,5.3019,5.3023,5.3026,5.3035,5.304,5.3045,0,0,0,0,0,5.2397,5.2452,5.2456,5.2475,5.2576,5.2646,5.2659,5.2685,5.2672,5.2699,5.2731,5.2734,5.2865,5.2839,5.2856,5.2888,5.3018,5.3022,5.3026,5.3032,5.3039,5.3045,0,0,0,0,0,0,5.239,5.246,5.2466,5.2543,5.2589,5.2648,5.2684,5.2692,5.2741,5.2738,5.2767,5.278,5.2847,5.2875,5.2845,5.2959,5.294,5.2947,5.2939,5.2945,5.295,5.2942,5.2839,0,0,0,0,0,5.2398,5.2452,5.2509,5.2571,5.2594,5.2635,5.2667,5.2683,5.2731,5.275,5.2787,5.2831,5.2883,5.2915,5.2965,5.3039,5.3051,5.3069,5.3074,5.3078,5.3085,5.3125,5.3134,5.3042,5.3042,5.3042,0,0,5.2414,5.2459,5.2491,5.2571,5.2609,5.2661,5.2651,5.2707,5.2746,5.2758,5.2826,5.2854,5.2905,5.2977,5.301,5.3002,5.3113,5.3084,5.3087,5.3091,5.313,5.3139,5.3147,5.3045,5.3045,5.3044,0,0,5.2471,5.2511,5.2567,5.2605,5.2663,5.269,5.2703,5.2762,5.2782,5.2851,5.2861,5.2906,5.2994,5.3031,5.306,5.3131,5.3135,5.3146,5.3173,5.3212,5.3219,5.3226,5.3251,5.326,5.3152,5.3153,5.3153,0,5.2483,5.2565,5.2594,5.2651,5.2686,5.2701,5.2757,5.2792,5.2862,5.2884,5.2875,5.2985,5.3021,5.3101,5.3118,5.3142,5.3157,5.314,5.3216,5.3223,5.323,5.3254,5.3263,5.3154,5.3153,5.3153,5.3153,0,5.2577,5.2634,5.2672,5.2742,5.2781,5.2836,5.2873,5.2908,5.2921,5.2949,5.3018,5.3062,5.3121,5.3141,5.3153,5.3223,5.3216,5.3211,5.3192,5.3239,5.3262,5.3271,5.3155,5.3155,5.3154,5.3154,0,0,5.2632,5.2718,5.2732,5.2764,5.2829,5.2872,5.2928,5.2988,5.3017,5.3065,5.3112,5.3186,5.3182,5.3216,5.3233,5.3267,5.332,5.3258,5.326,5.3268,5.3399,5.3402,5.3412,5.3323,5.3325,5.3327,5.3394,0,5.2696,5.2799,5.2827,5.2913,5.2966,5.2981,5.3029,5.3073,5.31,5.3147,5.3176,5.3228,5.3219,5.324,5.3275,5.3306,5.3347,5.3302,5.3366,5.3368,5.3352,5.3424,5.3428,5.3489,5.3403,5.3405,5.3406,0,5.2784,5.2836,5.2928,5.2987,5.301,5.3053,5.311,5.3155,5.3205,5.3222,5.3261,5.3274,5.3332,5.331,5.3389,5.3358,5.3385,5.3405,5.3408,5.3414,5.3389,5.3432,5.351,5.3519,5.3421,5.3419,5.3418,0,5.2815,5.2907,5.2975,5.3001,5.3071,5.3102,5.3132,5.318,5.3214,5.3263,5.3286,5.334,5.3369,5.341,5.3438,5.342,5.3514,5.3495,5.3529,5.3528,5.3548,5.3546,5.363,5.3566,5.3566,5.3565,5.3565,0,5.2883,5.2938,5.299,5.3031,5.3093,5.3124,5.3185,5.3215,5.3258,5.3304,5.3319,5.3362,5.3396,5.3442,5.3464,5.3526,5.3539,5.3553,5.3558,5.3552,5.355,5.357,5.3566,5.3568,5.3567,5.3567,5.3566,0,5.2927,5.2964,5.3039,5.3099,5.3116,5.3159,5.321,5.325,5.3278,5.3336,5.3351,5.3395,5.345,5.3482,5.3551,5.3566,5.3634,5.3637,5.3618,5.362,5.3652,5.3649,5.3752,5.3767,5.3693,5.3694,5.3694,0,5.2969,5.3012,5.3078,5.3112,5.3143,5.3196,5.3231,5.3263,5.3299,5.336,5.3392,5.3449,5.3496,5.3584,5.3621,5.3674,5.3678,5.371,5.3686,5.3678,5.3678,5.3675,5.3679,5.3714,5.3715,5.3716,5.3716,0,5.3037,5.3054,5.3106,5.3164,5.3207,5.3254,5.33,5.3326,5.3365,5.3404,5.3463,5.35,5.3572,5.3628,5.3684,5.3713,5.3721,5.3724,5.3734,5.3728,5.3715,5.3723,5.363,5.3721,5.372,5.372,5.372,5.372,5.3082,5.3121,5.3174,5.3232,5.327,5.3314,5.3354,5.3388,5.3438,5.3501,5.3516,5.3577,5.3625,5.3702,5.3732,5.3779,5.3773,5.3788,5.3792,5.3796,5.3797,5.3708,5.3789,5.3789,5.3789,5.3789,5.3789,0,5.3151,5.3186,5.3239,5.3305,5.3349,5.3355,5.3407,5.3443,5.3498,5.3543,5.359,5.3657,5.3711,5.3752,5.3808,5.3837,5.3842,5.3851,5.3849,5.3855,5.3799,5.3784,5.3846,5.3846,5.3846,5.3846,5.3846,5.3846,5.3193,5.326,5.3283,5.3369,5.3403,5.3465,5.3494,5.3533,5.357,5.3644,5.3691,5.3718,5.3761,5.382,5.387,5.388,5.39,5.3908,5.3918,5.3865,5.3859,5.3853,5.3839,5.3912,5.3912,5.3971,5.3971,5.3972]}]]